Tracking 25710 objects as of 6-Jul-2022
HD Live streaming from Space Station
objects crossing your sky now

ATLAS 5 CENTAUR DEB

Track ATLAS 5 CENTAUR DEB now!


NORAD ID: 44016
Int'l Code: 2014-055BX
Perigee: 8,604.6 km
Apogee: 34,938.7 km
Inclination: 21.1 °
Period: 783.1 minutes
Semi major axis: 28142 km
RCS: Unknown
Launch date: September 17, 2014
Source: United States (US)
Launch site: AIR FORCE EASTERN TEST RANGE (AFETR)

Note: This is SATELLITE DEBRIS
aabbcc
Your satellite tracking list
Your tracking list is empty




NASA's NSSDC Master Catalog

Two Line Element Set (TLE):
1 44016U 14055BX  22183.46599715 -.00000081  00000-0  00000-0 0  9992
2 44016  21.0748 286.8624 4678675 270.6614  38.1617  1.83888799 24816
Source of the keplerian elements: AFSPC